Location: Bremen
(53.0793°N, 8.8017°E)
Time: 03:20:01
(UTC+01:00)

Transit 2A - Pass Details

Date: 06 December 2021
Orbit: 591 x 967 km, 66.7° (Epoch: 17 January)

Event Time Altitude Azimuth Distance (km) Brightness Sun altitude
Exits shadow 07:12:15 - 322° (NW) 2,840 8.4 -9.8°
Reaches altitude 10° 07:12:38 10° 323° (NW) 2,709 8.3 -9.8°
Maximum altitude 07:18:55 55° 40° (NE) 1,157 7.0 -8.9°
Drops below altitude 10° 07:25:04 10° 118° (ESE) 2,655 10.6 -8.1°
Sets 07:27:37 0° 123° (ESE) 3,562 11.9 -7.8°
